#timestamp,LO_Frequency,Hit,StdDev 
1515661215.2,286046999.4,N
1515661235.1,286046997.2,N
1515661236.0,286046997.2,N
1515661255.8,286046997.3,N
1515661275.6,286046997.7,N
1515661295.5,286046997.9,N
1515661315.3,286046995.6,Y
1515661335.1,286047000.7,P
1515661355.9,286047000.8,N
1515661375.7,286047001.1,N
1515661395.6,286046998.7,N
1515661415.4,286047000.6,N
1515661435.2,286046999.7,N
1515661455.1,286047002.6,N
1515661456.0,286047002.6,N
1515661475.8,286047002.2,N
1515661495.7,286047002.8,N
1515661515.5,286047002.1,N
1515661535.3,286047002.5,N
1515661555.2,286047004.3,N
1515661575.9,286047002.4,N
1515661595.7,286047002.8,N
1515661615.6,286047002.8,N
1515661635.4,286047000.1,N
1515661655.2,286046999.3,N
1515661675.1,286046998.5,N
1515661676.0,286046998.5,N
1515661695.8,286047000.8,N
1515661715.7,286046998.3,N
1515661735.5,286046998.8,N
1515661755.3,286046999.4,N
1515661775.2,286046999.4,N
1515661795.0,286046996.7,N
1515661795.9,286046996.7,N
1515661815.8,286046996.9,N
1515661835.6,286047002.1,N
1515661855.4,286047001.4,N
1515661875.3,286046996.5,N
1515661895.1,286046996.5,N
1515661915.8,286046998.5,N
1515661935.7,286047008.0,Y
1515661955.5,286047010.1,P
1515661975.4,286047008.0,N
1515661995.2,286047004.7,N
1515662015.0,286047004.4,N
1515662035.6,286047004.0,N
1515662055.4,286047001.5,N
1515662075.2,286047004.4,N
1515662095.1,286047003.8,N
1515662096.0,286047003.8,N
1515662115.8,286047001.6,N
1515662135.7,286047001.4,N
1515662155.5,286047002.0,N
1515662175.3,286047004.1,N
1515662195.2,286047004.0,N
1515662215.0,286047002.1,N
1515662215.9,286047002.1,N
1515662235.8,286047001.9,N
1515662255.6,286047004.2,N
1515662275.4,286047004.1,N
1515662295.3,286047001.8,N
1515662315.1,286047004.1,N
1515662335.9,286047001.3,N
1515662355.7,286047001.4,N
1515662375.5,286047004.1,N
1515662395.4,286047004.0,N
1515662415.2,286047001.9,N
1515662435.0,286047000.0,N
1515662435.9,286047000.0,N
1515662455.8,286046999.9,N
1515662475.6,286046999.8,N
1515662495.5,286047000.3,N
1515662515.3,286047000.9,N
1515662535.1,286047001.2,N
1515662555.9,286047000.8,N
1515662575.7,286047002.7,N
1515662595.5,286047002.1,N
1515662615.4,286047002.0,N
1515662635.2,286047002.6,N
1515662655.1,286047002.1,N
1515662656.0,286047002.1,N
1515662675.8,286047002.0,N
1515662695.6,286047002.1,N
1515662715.5,286047002.0,N
1515662735.3,286047001.5,N
1515662755.1,286047001.7,N
1515662775.9,286047001.7,N
1515662795.7,286047003.9,Y
1515662815.6,286047002.1,P
1515662835.4,286047001.5,P
1515662855.2,286047002.6,P
1515662875.1,286046999.8,N
1515662876.0,286046999.8,N
1515662895.8,286047000.2,N
1515662915.6,286047002.2,N
1515662965.5,286047001.6,E
1515662975.4,286047002.7,N
1515662995.3,286047000.0,P
1515663015.1,286046998.3,N
1515663035.9,286046998.3,N
1515663055.7,286046999.0,N
1515663075.5,286046997.1,N
1515663095.4,286046994.9,N
1515663115.2,286046996.7,N
1515663135.1,286046996.6,N
1515663136.0,286046996.6,N
1515663155.8,286046997.3,N
1515663175.6,286046996.9,N
1515663195.5,286046999.5,N
1515663215.3,286046996.9,N
1515663235.2,286046998.4,N
1515663255.9,286046997.0,N
1515663275.7,286046999.4,N
1515663295.6,286046998.9,N
1515663315.4,286046998.3,N
1515663335.2,286046999.3,N
1515663355.1,286047001.1,N
1515663356.0,286047001.1,N
1515663375.8,286047002.8,N
1515663395.7,286047002.7,N
1515663415.5,286047002.8,N
1515663435.3,286046999.8,N
1515663455.2,286046998.7,N
1515663475.0,286046999.1,N
1515663475.9,286046999.1,N
1515663495.8,286046999.1,N
1515663545.6,286047000.8,E
1515663555.6,286046998.5,N
1515663575.4,286046998.6,P
1515663595.2,286047000.9,P
1515663615.1,286046998.3,N
1515663616.0,286046998.3,N
1515663635.8,286046998.9,N
1515663655.6,286046998.7,N
1515663675.5,286047000.6,N
1515663695.3,286046998.5,N
1515663715.2,286047000.3,N
1515663735.1,286047000.6,N
1515663755.8,286047000.4,N
1515663775.7,286047014.6,Y
1515663795.5,286047018.8,P
1515663815.4,286047015.4,N
1515663835.2,286047008.4,N
1515663855.0,286047006.7,N
1515663855.9,286047006.7,N
1515663875.8,286047005.4,N
1515663895.6,286047005.9,N
1515663915.5,286047005.4,N
1515663935.3,286047004.8,N
1515663955.1,286047004.7,N
1515663975.9,286047005.4,N
1515663995.7,286047005.1,N
1515664015.5,286047004.7,N
1515664035.4,286047002.9,N
1515664055.2,286047004.4,N
1515664075.1,286047001.4,N
1515664076.0,286047001.4,N
1515664095.8,286047003.8,N
1515664115.6,286047004.3,N
1515664135.5,286047004.1,N
1515664155.3,286047003.6,N
1515664175.1,286047001.8,N
1515664195.9,286047002.0,N
1515664215.7,286047001.6,N
1515664235.6,286047002.0,N
1515664255.4,286047002.7,N
1515664275.2,286047000.2,N
1515664295.1,286047001.6,N
1515664296.0,286047001.6,N
1515664315.8,286047001.7,N
1515664335.6,286047001.3,N
1515664355.5,286047001.6,N
1515664375.3,286047001.4,N
1515664395.2,286047004.2,N
1515664415.9,286047002.1,N
1515664435.7,286047001.9,N
1515664455.6,286047004.2,N
1515664475.2,286047001.7,N
1515664495.0,286047000.0,N
1515664495.9,286047000.0,N
1515664515.8,286047000.2,N
1515664535.6,286047000.2,N
1515664555.5,286047002.4,N
1515664575.3,286047002.5,N
1515664595.1,286047002.0,N
1515664615.9,286047000.3,N
1515664635.7,286047002.4,N
1515664655.6,286047002.2,N
1515664675.5,286047002.3,N
1515664695.3,286047002.7,N
1515664715.2,286047002.2,N
1515664735.9,286047002.0,N
1515664755.7,286047002.4,N
1515664775.6,286046999.9,N
1515664795.4,286046998.1,N
